Murray, NE

7:00 PM CST on February 05, 2016 (GMT -0600)
Plattsmouth Municipal

Weather History for KPMV - May, 2014

Change the Weather History Date:

Friday, May 9, 2014

  Actual Average (KOFF) Record (KOFF)
Temperature  
Mean Temperature 56 °F -  
Max Temperature 70 °F 69 °F 95 °F (2011)
Min Temperature 43 °F 49 °F 42 °F (1997)
Degree Days  
Heating Degree Days 8    
Growing Degree Days 6 (Base 50)    
Moisture  
Dew Point 36 °F    
Average Humidity 49    
Maximum Humidity 80    
Minimum Humidity 24    
Precipitation  
Precipitation 0.00 in - - ()
Sea Level Pressure  
Sea Level Pressure 29.84 in    
Wind  
Wind Speed 13 mph (West)    
Max Wind Speed 22 mph    
Max Gust Speed 28 mph    
Visibility 10 miles    
Events      
Averages and records for this station are not official NWS values.
T = Trace of Precipitation, MM = Missing Value Source: NWS Daily Summary

Daily Weather History Graph

Daily Weather History Graph

Search for Another Location

Airport or City:

Trip Planner

Search our weather history database for the weather conditions in past years. The results will help you decide how hot, cold, wet, or windy it might be!

Date:

Astronomy

May. 09, 2014 Rise Set
Actual Time 6:12 AM CDT 8:28 PM CDT
Civil Twilight 5:41 AM CDT 8:59 PM CDT
Nautical Twilight 5:03 AM CDT 9:37 PM CDT
Astronomical Twilight 4:22 AM CDT 10:19 PM CDT
Moon 3:24 PM CDT (5/9) 3:17 AM CDT (5/9)
Length of Visible Light 15h 17m
Length of Day
14h 16m
Waxing Gibbous, 74% of the Moon is Illuminated
May 9
Waxing Gibbous
May 14
Full
May 21
Last Quarter
May 28
New
Jun 5
First Quarter

Hourly Weather History & Observations

Time (CDT) Temp. Windchill Dew Point Humidity Pressure Visibility Wind Dir Wind Speed Gust Speed Precip Events Conditions
12:15 AM 51.8 °F - 41.0 °F 67% 29.79 in 10.0 mi WNW 21.9 mph 26.5 mph N/A   Clear
12:35 AM 50.4 °F - 39.4 °F 66% 29.79 in 10.0 mi WNW 19.6 mph 26.5 mph N/A   Clear
12:55 AM 49.5 °F - 39.4 °F 68% 29.80 in 10.0 mi WNW 15.0 mph 25.3 mph N/A   Clear
1:15 AM 48.6 °F - 39.4 °F 71% 29.80 in 10.0 mi WNW 17.3 mph 20.7 mph N/A   Clear
1:35 AM 47.8 °F - 39.0 °F 71% 29.81 in 10.0 mi WNW 16.1 mph 23.0 mph N/A   Clear
1:55 AM 47.7 °F - 38.7 °F 71% 29.80 in 10.0 mi WNW 21.9 mph - N/A   Scattered Clouds
2:15 AM 47.5 °F - 38.5 °F 71% 29.80 in 10.0 mi WNW 13.8 mph 23.0 mph N/A   Mostly Cloudy
2:35 AM 46.9 °F - 38.3 °F 72% 29.80 in 10.0 mi WNW 12.7 mph 20.7 mph N/A   Mostly Cloudy
2:55 AM 47.3 °F - 38.1 °F 70% 29.80 in 10.0 mi WNW 20.7 mph 25.3 mph N/A   Overcast
3:15 AM 47.5 °F - 38.3 °F 70% 29.80 in 10.0 mi NW 19.6 mph 25.3 mph N/A   Overcast
3:35 AM 47.7 °F - 37.9 °F 69% 29.82 in 10.0 mi WNW 20.7 mph 27.6 mph N/A   Overcast
3:55 AM 47.5 °F - 37.8 °F 69% 29.82 in 10.0 mi WNW 15.0 mph - N/A   Overcast
4:15 AM 47.3 °F - 37.6 °F 69% 29.84 in 10.0 mi WNW 16.1 mph 19.6 mph N/A   Overcast
4:35 AM 46.6 °F - 37.6 °F 71% 29.84 in 10.0 mi WNW 10.4 mph - N/A   Overcast
4:55 AM 45.7 °F 41.5 °F 37.2 °F 72% 29.85 in 10.0 mi WNW 8.1 mph - N/A   Mostly Cloudy
5:15 AM 44.6 °F 40.2 °F 37.4 °F 76% 29.86 in 10.0 mi West 8.1 mph - N/A   Clear
5:35 AM 43.9 °F 39.3 °F 37.4 °F 78% 29.86 in 10.0 mi West 8.1 mph - N/A   Clear
5:55 AM 43.7 °F 39.1 °F 37.4 °F 78% 29.86 in 10.0 mi West 8.1 mph - N/A   Clear
6:15 AM 43.2 °F 39.7 °F 37.4 °F 80% 29.86 in 10.0 mi West 5.8 mph - N/A   Clear
6:35 AM 43.5 °F 38.9 °F 37.8 °F 80% 29.87 in 10.0 mi West 8.1 mph - N/A   Clear
6:55 AM 44.1 °F 40.1 °F 37.9 °F 79% 29.88 in 10.0 mi West 6.9 mph - N/A   Clear
7:15 AM 44.6 °F 40.7 °F 38.5 °F 79% 29.89 in 10.0 mi West 6.9 mph - N/A   Clear
7:35 AM 45.9 °F 41.7 °F 38.5 °F 75% 29.89 in 10.0 mi West 8.1 mph - N/A   Clear
7:55 AM 47.3 °F - 39.2 °F 73% 29.89 in 10.0 mi West 9.2 mph - N/A   Clear
8:15 AM 48.4 °F - 39.0 °F 70% 29.89 in 10.0 mi WNW 9.2 mph 17.3 mph N/A   Scattered Clouds
8:35 AM 49.1 °F - 39.0 °F 68% 29.89 in 10.0 mi NW 13.8 mph - N/A   Scattered Clouds
8:55 AM 49.5 °F - 39.0 °F 67% 29.89 in 10.0 mi WNW 15.0 mph 20.7 mph N/A   Clear
9:15 AM 51.1 °F - 39.7 °F 65% 29.89 in 10.0 mi WNW 10.4 mph - N/A   Clear
9:35 AM 52.5 °F - 39.9 °F 62% 29.89 in 10.0 mi West 11.5 mph 16.1 mph N/A   Clear
9:55 AM 53.8 °F - 39.7 °F 59% 29.89 in 10.0 mi WNW 13.8 mph 21.9 mph N/A   Clear
10:15 AM 54.7 °F - 39.2 °F 56% 29.89 in 10.0 mi WNW 10.4 mph 18.4 mph N/A   Clear
10:35 AM 56.3 °F - 39.0 °F 52% 29.88 in 10.0 mi WNW 11.5 mph - N/A   Clear
10:55 AM 57.4 °F - 37.9 °F 48% 29.88 in 10.0 mi WNW 9.2 mph 16.1 mph N/A   Clear
11:15 AM 57.4 °F - 36.7 °F 46% 29.89 in 10.0 mi NW 11.5 mph - N/A   Clear
11:35 AM 58.8 °F - 35.6 °F 42% 29.88 in 10.0 mi West 10.4 mph - N/A   Clear
11:55 AM 59.5 °F - 36.1 °F 42% 29.89 in 10.0 mi WNW 5.8 mph - N/A   Clear
12:15 PM 60.8 °F - 35.4 °F 39% 29.88 in 10.0 mi West 9.2 mph 16.1 mph N/A   Clear
12:35 PM 61.9 °F - 34.2 °F 35% 29.87 in 10.0 mi NW 9.2 mph 16.1 mph N/A   Clear
12:55 PM 62.4 °F - 32.9 °F 33% 29.87 in 10.0 mi WNW 10.4 mph 17.3 mph N/A   Clear
1:15 PM 62.8 °F - 33.8 °F 34% 29.86 in 10.0 mi WNW 9.2 mph - N/A   Clear
1:35 PM 64.4 °F - 32.5 °F 30% 29.86 in 10.0 mi WNW 11.5 mph 24.2 mph N/A   Clear
1:55 PM 65.3 °F - 33.4 °F 31% 29.86 in 10.0 mi WNW 10.4 mph 18.4 mph N/A   Clear
2:15 PM 66.0 °F - 33.1 °F 29% 29.85 in 10.0 mi WSW 11.5 mph - N/A   Clear
2:35 PM 67.1 °F - 33.4 °F 29% 29.85 in 10.0 mi WSW 15.0 mph 19.6 mph N/A   Clear
2:55 PM 67.3 °F - 32.7 °F 28% 29.85 in 10.0 mi West 15.0 mph 18.4 mph N/A   Clear
3:15 PM 67.6 °F - 33.4 °F 28% 29.85 in 10.0 mi West 9.2 mph 17.3 mph N/A   Clear
3:35 PM 68.7 °F - 32.7 °F 26% 29.84 in 10.0 mi West 6.9 mph - N/A   Clear
3:55 PM 69.1 °F - 33.6 °F 27% 29.83 in 10.0 mi WSW 10.4 mph 18.4 mph N/A   Clear
4:15 PM 69.6 °F - 33.3 °F 26% 29.83 in 10.0 mi West 16.1 mph 20.7 mph N/A   Clear
4:35 PM 70.3 °F - 33.3 °F 25% 29.82 in 10.0 mi West 13.8 mph 17.3 mph N/A   Clear
4:55 PM 70.2 °F - 33.6 °F 26% 29.82 in 10.0 mi WSW 11.5 mph 18.4 mph N/A   Scattered Clouds
5:15 PM 70.7 °F - 32.9 °F 25% 29.82 in 10.0 mi West 12.7 mph 19.6 mph N/A   Scattered Clouds
5:35 PM 70.2 °F - 32.4 °F 25% 29.81 in 10.0 mi West 12.7 mph 18.4 mph N/A   Clear
5:55 PM 70.0 °F - 32.2 °F 25% 29.80 in 10.0 mi WSW 12.7 mph 16.1 mph N/A   Clear
6:15 PM 70.3 °F - 31.8 °F 24% 29.80 in 10.0 mi West 10.4 mph - N/A   Clear
6:35 PM 70.9 °F - 32.2 °F 24% 29.79 in 10.0 mi WSW 9.2 mph - N/A   Clear
6:55 PM 70.0 °F - 32.2 °F 25% 29.79 in 10.0 mi SW 8.1 mph - N/A   Clear
7:15 PM 69.1 °F - 31.8 °F 25% 29.79 in 10.0 mi SW 6.9 mph - N/A   Clear
7:35 PM 68.0 °F - 32.0 °F 26% 29.79 in 10.0 mi WSW 6.9 mph - N/A   Clear
7:55 PM 68.0 °F - 31.6 °F 26% 29.79 in 10.0 mi WSW 3.5 mph - N/A   Clear
8:15 PM 67.6 °F - 31.1 °F 26% 29.81 in 10.0 mi Calm Calm - N/A   Clear
8:35 PM 66.7 °F - 31.1 °F 26% 29.81 in 10.0 mi Calm Calm - N/A   Clear
8:55 PM 66.7 °F - 31.1 °F 26% 29.81 in 10.0 mi Calm Calm - N/A   Clear
9:15 PM 61.9 °F - 35.8 °F 38% 29.81 in 10.0 mi SE 4.6 mph - N/A   Clear
9:35 PM 61.7 °F - 34.7 °F 36% 29.82 in 10.0 mi SSE 4.6 mph - N/A   Clear
9:55 PM 60.8 °F - 36.3 °F 40% 29.83 in 10.0 mi SE 4.6 mph - N/A   Clear
10:15 PM 61.2 °F - 36.3 °F 40% 29.83 in 10.0 mi SSE 6.9 mph - N/A   Clear
10:55 PM 58.8 °F - 35.6 °F 42% 29.84 in 10.0 mi SSE 6.9 mph - N/A   Clear
11:15 PM 58.6 °F - 35.1 °F 41% 29.84 in 10.0 mi SSE 6.9 mph - N/A   Clear
11:35 PM 58.5 °F - 34.9 °F 41% 29.84 in 10.0 mi SSE 6.9 mph - N/A   Clear
11:55 PM 57.7 °F - 35.6 °F 44% 29.84 in 10.0 mi SE 8.1 mph - N/A   Clear